ARIANE 42P DEB, 44513

Orbit data source: Space-Track

ARIANE 42P DEB, 44513 is space debris in LEO originally from a launch on Mon, 10 Aug 1992 UTC launched from the French Guiana (FRGUI). Debris objects in space refer to the collection of defunct objects orbiting the Earth. Examples of debris include non-operational satellites, rocket bodies, and fragments generated from explosions, collisions, or faulty payload assembly.

Loading next visibility...
Identifier
44513, 1992-052L
Orbit
LEO
Country
Flag of FRFR
Related business
Manufacturer
ArianeGroup
Mission
Spacecraft
Bus & Motor
Unknown
Mass
Unknown
Launch date (UTC)
1992-08-10 (33 years ago)
Launch vehicle
Unknown
Launch site
French Guiana (FRGUI)
Object type
Payload
Rocket body
Debris
Shape & HBR
Unknown shape, 0.1 m
Radar Cross Section
Small (<0.1 m²)

Expand to show TLE details & history
Last TLE update: 2 days ago

TLE from 2 days ago
0 ARIANE 42P DEB
1 44513U 92052L   26034.95962640  .00000521  00000-0  25385-2 0  9994
2 44513  66.0374 218.5306 0070047  16.4979 343.8292 12.79720807301675
Epoch: 2026-02-03T23:01Z
TLE epoch observation values (Epoch: 2026-02-03T23:01:51.720Z)
Latitude
-0.00008°
Longitude
98.93199°
Altitude
1,292.584 km
Speed
7.235 km/s
True Right ascension
14h 34m 07s
True Declination
0° 00' 00"
Sunlit
Object was in daylight at epoch
Visualization orbit readout
Latitude
Unknown
Longitude
Unknown
Altitude
Unknown
Speed
Unknown
Apparent Right ascension
Unknown
Apparent Declination
Unknown
Sunlit
N/A
Visualization observer readout
Local Sidereal Time
10:27:41
Azimuth
Unknown
Elevation
Unknown
Doppler factor
Unknown
Orbital elements
Apogee altitude
1,395.228 km
Perigee altitude
1,287.086 km
Semi-major axis
7,719.294 km
Eccentricity
0.007
Inclination
66.0374°
RAAN
218.5306°
Arg. of periapsis
16.4979°
True anomaly
343.60376°
Mean anomaly
343.8292°
Eccentric anomaly
343.71667°
Mean motion
3.2002 °/min
Orbital period
112.49 mins
BSTAR
0.0025385
Loading maneuver chart data...
Computing Atmospheric mass density...
Loading historical data...
Loading historical data...
Loading historical data...
Loading historical data...
Loading historical data...
Loading historical data...
Loading historical data...

Documentation

Showing up to 5 results
|